FLOCK 3P-56 (42042 NORAD) Tracking and Keplerian Element Data

This shows tracking and keplerian element data for the satellite.

Feedback or suggestion? Click here.




ElementValue
Catalog42042
NameFLOCK 3P-56
Epoch Orbit17714
Epoch Day114.72591272
Epoch Year2020
RAAN184.8021
Inclination97.3682
Eccentricity0.000795
Argument of Perigee138.9202
Mean Anonmoly221.2638
Mean Motion15.28247375
Decay Rate2.945E-05
L11 42042U 17008CY 20114.72591272 .00002945 00000-0 10966-3 0 9996
L22 42042 97.3682 184.8021 0007950 138.9202 221.2638 15.28247375177147



Live tracking and technical data element details for FLOCK 3P-56 (NORAD 42042). FLOCK 3P-56 can be tracked NOW for your location showing map with azimuth and elevation plus other details from your city location.







IsCatalogInMostPopularTable: catalog: 42042, numindb: 603
Update: records affected: 1



GetName: 42042 FLOCK 3P-56

Hit Count: updated at: Tue, 03 Dec 2024 01:34:57 GMT